Location: Mount Kobau Star Party
(49.1167°N, 119.7333°W)
Time: 10:55:18
(UTC-07:00)

Envisat - Pass Details

Date: 25 April 2026
Orbit: 761 x 762 km, 98.4° (Epoch: 17 May)

Event Time Altitude Azimuth Distance (km) Brightness Sun altitude
Rises 04:36:32 0° 8° (N) 3,233 6.9 -11.1°
Reaches altitude 10° 04:38:58 10° 0° (N) 2,303 6.0 -10.8°
Maximum altitude 04:43:36 37° 295° (WNW) 1,167 3.7 -10.2°
Enters shadow 04:47:49 12° 230° (SW) 2,144 4.6 -9.6°
